Location: Unspecified
(0.0000°N, 0.0000°E)
Time: 20:32:24
(UTC+00:00)

N. Korean satellite - Pass Details

Date: 27 March 2023
Orbit: 390 x 416 km, 97.3° (Epoch: 29 March)

Event Time Altitude Azimuth Distance (km) Brightness Sun altitude
Rises 04:29:06 0° 36° (NE) 2,276 10.5 -24.1°
Reaches altitude 10° 04:31:30 10° 57° (ENE) 1,421 9.7 -23.5°
Maximum altitude 04:33:36 17° 101° (E) 1,065 9.2 -23.0°
Drops below altitude 10° 04:35:42 10° 145° (SE) 1,422 9.3 -22.4°
Sets 04:38:06 0° 166° (SSE) 2,280 10.1 -21.8°
